Location: Unspecified
(0.0000°N, 0.0000°E)
Time: 19:55:09
(UTC+00:00)

Transit 2A - Pass Details

Date: 26 April 2024
Orbit: 594 x 958 km, 66.7° (Epoch: 22 May)

Event Time Altitude Azimuth Distance (km) Brightness Sun altitude
Rises 02:47:36 0° 182° (S) 2,904 - -45.8°
Reaches altitude 10° 02:50:09 10° 170° (S) 1,963 - -45.2°
Maximum altitude 02:53:54 28° 110° (ESE) 1,127 - -44.3°
Drops below altitude 10° 02:57:35 10° 51° (NE) 1,918 - -43.5°
Exits shadow 02:59:17 - 42° (NE) 2,539 9.3 -43.1°
Sets 03:00:02 0° 39° (NE) 2,825 9.6 -42.9°
